Tracking 22993 objects as of 11-May-2021
HD Live streaming from Space Station
objects crossing your sky now

SCOUT B-1 DEB

Track SCOUT B-1 DEB now!
10-day predictions


NORAD ID: 8867
Int'l Code: 1976-047C
Perigee: 999.8 km
Apogee: 1,110.2 km
Inclination: 99.4 °
Period: 106.1 minutes
Semi major axis: 7425 km
RCS: 0.05 m2 (small)
Launch date: May 22, 1976
Source: United States (US)
Launch site: AIR FORCE WESTERN TEST RANGE (AFWTR)

Note: This is SATELLITE DEBRIS
aabbcc
Your satellite tracking list
Your tracking list is empty




NASA's NSSDC Master Catalog

Two Line Element Set (TLE):
1 08867U 76047C   21130.37491428  .00000028  00000-0  97246-4 0  9990
2 08867  99.3941  35.7574 0074378 355.8245  74.1337 13.56662796223089
Source of the keplerian elements: AFSPC